Location: Red Bud (historical)
(37.7759°N, 88.4053°W)
Time: 23:52:50
(UTC+00:00)

CZ-2D R/B - Pass Details

Date: 29 October 2020
Orbit: 522 x 537 km, 97.4° (Epoch: 28 November)

Event Time Altitude Azimuth Distance (km) Brightness Sun altitude
Rises 23:40:02 0° 143° (SE) 2,649 6.5 -9.0°
Reaches altitude 10° 23:42:20 10° 131° (SE) 1,762 5.5 -9.4°
Maximum altitude 23:45:36 28° 72° (ENE) 1,009 4.1 -10.0°
Drops below altitude 10° 23:48:53 10° 12° (NNE) 1,767 5.7 -10.7°
Sets 23:51:11 0° 1° (N) 2,659 6.7 -11.1°
